Location: Knowlton
(51.2333°N, 1.2667°E)
Time: 09:27:43
(UTC+00:00)

COSMOS 2455 - Pass Details

Date: 18 April 2021
Orbit: 902 x 907 km, 67.1° (Epoch: 16 May)

Event Time Altitude Azimuth Distance (km) Brightness Sun altitude
Exits shadow 23:01:17 34° 240° (WSW) 1,444 3.7 -26.6°
Maximum altitude 23:03:55 66° 312° (NW) 987 3.1 -26.7°
Drops below altitude 10° 23:09:56 10° 34° (NE) 2,601 5.7 -26.9°
Sets 23:12:29 0° 38° (NE) 3,546 6.5 -26.9°
